Tracking 18852 objects as of 24-Nov-2017
HD Live streaming from Space Station
objects crossing your sky now

FENGYUN 1C DEB

Track FENGYUN 1C DEB now!
10-day predictions


NORAD ID: 41002
Int'l Code: 1999-025EXG
Perigee: 837.5 km
Apogee: 1,050.5 km
Inclination: 98.2 °
Period: 103.8 minutes
Semi major axis: 7314 km
RCS: Unknown
Launch date: May 10, 1999
Source: People's Republic of China (PRC)
Launch site: Taiyaun Space Center, China (TSC)

Note: This is SATELLITE DEBRIS
aabbcc
Your satellite tracking list
Your tracking list is empty




NASA's NSSDC Master Catalog

Two Line Element Set (TLE):
1 41002U 99025EXG 17311.92832971  .00001073  00000-0  86029-3 0  9995
2 41002  98.1847 199.6141 0145628  91.1943 270.5905 13.87656970338756
Source of the keplerian elements: AFSPC